Tok, AK

10:22 PM AKST on February 21, 2017 (GMT -0900)
Northway

Weather History for PAOR - October, 2013

Change the Weather History Date:

Saturday, October 12, 2013

  Actual Average Record
Temperature  
Mean Temperature 36 °F -  
Max Temperature 44 °F 33 °F 54 °F (1969)
Min Temperature 28 °F 17 °F -5 °F (1997)
Degree Days  
Heating Degree Days 29    
Moisture  
Dew Point 26 °F    
Average Humidity 75    
Maximum Humidity 89    
Minimum Humidity 53    
Precipitation  
Precipitation 0.00 in - - ()
Sea Level Pressure  
Sea Level Pressure 29.96 in    
Wind  
Wind Speed 3 mph (SE)    
Max Wind Speed 9 mph    
Max Gust Speed -    
Visibility 10 miles    
Events      
Averages and records for this station are not official NWS values.
T = Trace of Precipitation, MM = Missing Value Source: NWS Daily Summary

Daily Weather History Graph

Daily Weather History Graph

Search for Another Location

Airport or City:

Trip Planner

Search our weather history database for the weather conditions in past years. The results will help you decide how hot, cold, wet, or windy it might be!

Date:

Astronomy

Oct. 12, 2013 Rise Set
Actual Time 8:07 AM AKDT 6:19 PM AKDT
Civil Twilight 7:20 AM AKDT 7:05 PM AKDT
Nautical Twilight 6:28 AM AKDT 7:58 PM AKDT
Astronomical Twilight 5:33 AM AKDT 8:52 PM AKDT
Moon 4:20 PM AKDT (10/12) No Moon Set
Length of Visible Light 11h 44m
Length of Day
10h 12m
First Quarter, 60% of the Moon is Illuminated
Oct 12
First Quarter
Oct 18
Full
Oct 26
Last Quarter
Nov 3
New
Nov 9
First Quarter

Hourly Weather History & Observations

Time (AKDT) Temp. Windchill Dew Point Humidity Pressure Visibility Wind Dir Wind Speed Gust Speed Precip Events Conditions
12:53 AM 28.0 °F - 24.1 °F 85% 29.99 in 10.0 mi Calm Calm - N/A   Clear
1:53 AM 28.0 °F 24.2 °F 24.1 °F 85% 29.99 in 10.0 mi South 3.5 mph - N/A   Clear
2:53 AM 30.0 °F 24.1 °F 25.0 °F 82% 29.97 in 10.0 mi SSE 5.8 mph - N/A   Partly Cloudy
3:53 AM 28.9 °F 25.2 °F 24.1 °F 82% 29.96 in 10.0 mi ESE 3.5 mph - N/A   Partly Cloudy
4:53 AM 28.0 °F 21.7 °F 24.1 °F 85% 29.96 in 10.0 mi South 5.8 mph - N/A   Scattered Clouds
5:53 AM 28.0 °F - 24.1 °F 85% 29.96 in 10.0 mi Calm Calm - N/A   Scattered Clouds
6:53 AM 28.0 °F 24.2 °F 24.1 °F 85% 29.97 in 10.0 mi SSE 3.5 mph - N/A   Mostly Cloudy
7:53 AM 28.0 °F - 25.0 °F 88% 29.98 in 10.0 mi Calm Calm - N/A   Overcast
8:53 AM 28.0 °F - 25.0 °F 88% 29.98 in 10.0 mi Calm Calm - N/A   Overcast
9:53 AM 28.9 °F 23.9 °F 26.1 °F 89% 29.98 in 10.0 mi ESE 4.6 mph - N/A   Overcast
10:53 AM 30.9 °F - 28.0 °F 89% 29.98 in 10.0 mi Calm Calm - N/A   Mostly Cloudy
11:53 AM 35.1 °F 31.0 °F 28.9 °F 78% 29.98 in 10.0 mi SSE 4.6 mph - N/A   Mostly Cloudy
12:53 PM 37.9 °F 31.5 °F 28.0 °F 68% 29.97 in 10.0 mi SE 9.2 mph - N/A   Mostly Cloudy
1:53 PM 41.0 °F 35.8 °F 27.0 °F 57% 29.97 in 10.0 mi ESE 8.1 mph - N/A   Scattered Clouds
2:53 PM 44.1 °F 39.5 °F 28.0 °F 53% 29.94 in 10.0 mi ESE 8.1 mph - N/A   Scattered Clouds
3:53 PM 41.0 °F 39.0 °F 28.0 °F 60% 29.96 in 10.0 mi SE 3.5 mph - N/A   Scattered Clouds
4:53 PM 44.1 °F 41.5 °F 28.0 °F 53% 29.95 in 10.0 mi ESE 4.6 mph - N/A   Scattered Clouds
5:53 PM 39.9 °F - 27.0 °F 60% 29.95 in 10.0 mi Calm Calm - N/A   Scattered Clouds
6:53 PM 36.0 °F - 27.0 °F 70% 29.96 in 10.0 mi Calm Calm - N/A   Scattered Clouds
7:53 PM 37.0 °F 32.4 °F 26.1 °F 65% 29.95 in 10.0 mi SE 5.8 mph - N/A   Scattered Clouds
8:53 PM 36.0 °F 31.1 °F 26.1 °F 67% 29.95 in 10.0 mi SE 5.8 mph - N/A   Clear
9:53 PM 34.0 °F 29.8 °F 25.0 °F 70% 29.94 in 10.0 mi SSE 4.6 mph - N/A   Scattered Clouds
10:53 PM 32.0 °F - 25.0 °F 75% 29.94 in 10.0 mi Calm Calm - N/A   Scattered Clouds
11:53 PM 32.0 °F 28.7 °F 25.0 °F 75% 29.92 in 10.0 mi SE 3.5 mph - N/A   Scattered Clouds